Tracking 33165 objects as of 7-Feb-2026
HD Live streaming from Space Station
objects crossing your sky now

CZ-5 R/B

Track CZ-5 R/B now!


NORAD ID: 67227
Int'l Code: 2025-306B
Perigee: 241.2 km
Apogee: 41,513.3 km
Inclination: 16.1 °
Period: 746.0 minutes
Semi major axis: 27248 km
RCS: Unknown
Launch date: December 20, 2025
Source: People's Republic of China (PRC)
Launch site: Taiyaun Space Center, China (TSC)

Note: This is a ROCKET BODY
Your satellite tracking list
Your tracking list is empty




NASA's NSSDC Master Catalog

Two Line Element Set (TLE):
1 67227U 25306B   26037.94066030  .00009086  00000-0  25229-2 0  9991
2 67227  16.1279 282.8149 7573352 209.0869  69.2316  1.93016949   955
Source of the keplerian elements: AFSPC